GW4152 Weather Reports


time (UTC)temp
F
wind
direction
speed
knots
gust
knots
rain 1hr
in
rain 24hr
in
rain mn
in
humidity
%
barometer
mb
20260507134541 45 106 0.0 5.2 0.00 0.01 0.00 71 1011.7
20260507134020 44 106 1.7 5.2 0.00 0.01 0.00 71 1011.8
20260507133521 44 111 0.9 3.5 0.00 0.01 0.00 71 1011.8
20260507133046 43 111 0.9 6.1 0.00 0.01 0.00 70 1011.8
20260507132519 43 111 2.6 6.1 0.00 0.01 0.00 70 1011.8
20260507132020 43 0 1.7 3.5 0.00 0.01 0.00 76 1011.9
20260507131540 42 92 0.9 2.6 0.00 0.01 0.00 76 1011.8
20260507131024 41 90 1.7 2.6 0.00 0.01 0.00 77 1011.9
20260507130524 41 90 0.9 2.6 0.00 0.01 0.00 80 1011.9
20260507130041 41 90 0.0 3.5 0.00 0.01 0.00 81 1012.0
20260507125527 40 90 0.9 4.3 0.00 0.04 0.00 81 1012.1
20260507125024 40 80 1.7 4.3 0.00 0.04 0.00 84 1012.0
20260507124540 40 11 1.7 2.6 0.00 0.04 0.00 87 1012.1
20260507124024 40 9 0.9 1.7 0.00 0.04 0.00 87 1012.1
20260507123523 39 9 0.9 4.3 0.00 0.04 0.00 89 1012.3
20260507123043 39 9 2.6 3.5 0.00 0.04 0.00 91 1012.3
20260507122522 39 352 0.0 2.6 0.00 0.04 0.00 94 1012.4
20260507122022 39 313 0.9 2.6 0.00 0.04 0.00 94 1012.4
20260507121541 39 0 0.0 1.7 0.00 0.04 0.00 95 1012.5
20260507121022 39 323 0.0 2.6 0.00 0.04 0.00 95 1012.5
20260507120523 39 347 0.9 3.5 0.00 0.04 0.00 95 1012.5
20260507120037 39 351 1.7 3.5 0.00 0.04 0.00 95 1012.4
20260507115524 40 0 0.0 0.0 0.00 0.07 0.00 96 1012.5
20260507115024 40 0 0.0 0.0 0.00 0.07 0.00 95 1012.4
20260507114555 40 0 0.0 0.0 0.00 0.07 0.00 96 1012.5
20260507114023 40 0 0.0 0.0 0.00 0.07 0.00 96 1012.4
20260507113520 40 0 0.0 0.0 0.00 0.07 0.00 96 1012.4
20260507113100 40 0 0.0 0.0 0.00 0.07 0.00 96 1012.4
20260507112520 39 0 0.0 0.0 0.00 0.07 0.00 96 1012.1
20260507112021 39 0 0.0 0.0 0.00 0.07 0.00 96 1011.9
20260507111542 39 0 0.0 0.0 0.00 0.07 0.00 96 1011.8
20260507111022 39 0 0.0 0.0 0.00 0.07 0.00 96 1011.6
20260507110523 39 0 0.0 0.0 0.00 0.07 0.00 96 1011.7
20260507110043 38 0 0.0 0.0 0.00 0.07 0.00 96 1011.6
20260507105522 38 0 0.0 0.0 0.00 0.13 0.00 96 1011.6
20260507105021 38 0 0.0 0.0 0.00 0.13 0.00 96 1011.6
20260507104543 38 0 0.0 0.0 0.00 0.13 0.00 96 1011.6
20260507104022 38 0 0.0 0.0 0.00 0.13 0.00 96 1011.7
20260507103524 38 0 0.0 0.0 0.00 0.13 0.00 96 1011.6
20260507103045 38 0 0.0 0.0 0.00 0.13 0.00 96 1011.7
20260507102521 37 0 0.0 0.0 0.00 0.13 0.00 96 1011.6
20260507102021 37 0 0.0 0.0 0.00 0.13 0.00 96 1011.6
20260507101537 37 0 0.0 0.0 0.00 0.13 0.00 96 1011.5
20260507101023 37 0 0.0 0.0 0.00 0.13 0.00 95 1011.7
20260507100520 36 0 0.0 0.0 0.00 0.13 0.00 95 1011.6
20260507100037 36 0 0.0 0.0 0.00 0.13 0.00 96 1011.5
20260507095521 36 0 0.0 0.0 0.00 0.21 0.00 95 1011.6
20260507095024 36 0 0.0 0.0 0.00 0.21 0.00 95 1011.5
20260507094538 36 0 0.0 0.0 0.00 0.21 0.00 95 1011.4
20260507094020 36 0 0.0 0.0 0.00 0.21 0.00 95 1011.4
20260507093520 36 0 0.0 0.0 0.00 0.21 0.00 95 1011.3
20260507093037 36 0 0.0 0.0 0.00 0.21 0.00 95 1011.3
20260507092520 36 0 0.0 0.0 0.00 0.21 0.00 94 1011.3
20260507092021 36 0 0.0 0.0 0.00 0.21 0.00 95 1011.3
20260507091542 36 0 0.0 0.0 0.00 0.21 0.00 95 1011.3
20260507091021 36 0 0.0 0.0 0.00 0.21 0.00 95 1011.4
20260507090521 36 0 0.0 0.0 0.00 0.21 0.00 95 1011.5
20260507090038 36 0 0.0 0.0 0.00 0.21 0.00 95 1011.5
20260507085521 36 0 0.0 0.0 0.00 0.27 0.00 95 1011.4
20260507085022 35 0 0.0 0.0 0.00 0.27 0.00 95 1011.4
20260507084544 35 0 0.0 0.0 0.00 0.27 0.00 95 1011.4
20260507084020 35 0 0.0 0.0 0.00 0.27 0.00 95 1011.3
20260507083521 35 0 0.0 0.0 0.00 0.27 0.00 94 1011.4
20260507083037 35 0 0.0 0.0 0.00 0.27 0.00 94 1011.3
20260507082521 35 0 0.0 0.0 0.00 0.27 0.00 94 1011.3
20260507082020 36 0 0.0 0.0 0.00 0.27 0.00 94 1011.2
20260507081541 36 0 0.0 0.0 0.00 0.27 0.00 94 1011.3
20260507081020 36 0 0.0 0.0 0.00 0.27 0.00 94 1011.3
20260507080521 36 0 0.0 0.0 0.00 0.27 0.00 94 1011.4
20260507080033 36 0 0.0 0.0 0.00 0.27 0.00 94 1011.3
20260507075520 36 0 0.0 0.0 0.00 0.33 0.00 94 1011.3
20260507075021 37 0 0.0 0.0 0.00 0.33 0.00 94 1011.2
20260507074545 37 0 0.0 0.0 0.00 0.33 0.00 94 1011.1
20260507074020 37 0 0.0 0.0 0.00 0.33 0.00 94 1011.1
20260507073521 37 0 0.0 0.0 0.00 0.33 0.00 94 1011.1
20260507073036 37 0 0.0 0.0 0.00 0.33 0.00 94 1011.1
20260507072524 37 0 0.0 0.0 0.00 0.33 0.00 94 1011.2
20260507072020 37 0 0.0 0.0 0.00 0.33 0.00 94 1011.3
20260507071537 38 0 0.0 0.0 0.00 0.33 0.00 94 1011.2
20260507071020 38 0 0.0 0.0 0.00 0.33 0.00 94 1011.1
20260507070520 38 0 0.0 0.0 0.00 0.33 0.00 94 1011.2
20260507070039 38 0 0.0 0.0 0.00 0.33 0.00 93 1011.4
20260507065519 38 0 0.0 0.0 0.00 0.41 0.00 94 1011.5
20260507065019 39 0 0.0 0.0 0.00 0.41 0.00 94 1011.6
20260507064539 39 0 0.0 0.0 0.00 0.41 0.00 93 1011.6
20260507064021 39 0 0.0 0.0 0.00 0.41 0.00 93 1011.6
20260507063521 39 0 0.0 0.0 0.00 0.41 0.00 93 1011.6
20260507063042 40 0 0.0 0.0 0.00 0.41 0.00 94 1011.5
20260507062521 40 0 0.0 0.0 0.00 0.41 0.00 94 1011.6
20260507062020 40 0 0.0 0.0 0.00 0.41 0.00 94 1011.6
20260507061539 40 0 0.0 0.0 0.00 0.41 0.00 93 1011.6
20260507061023 40 0 0.0 0.0 0.00 0.41 0.00 94 1011.6
20260507060521 40 0 0.0 0.0 0.00 0.41 0.00 94 1011.5
20260507060034 40 0 0.0 0.0 0.00 0.41 0.00 94 1011.7
20260507055523 41 0 0.0 0.0 0.00 0.55 0.00 94 1011.8
20260507055021 41 0 0.0 0.0 0.00 0.55 0.00 94 1011.7
20260507054540 41 0 0.0 0.0 0.00 0.55 0.00 94 1011.7
20260507054021 41 0 0.0 0.0 0.00 0.55 0.00 93 1011.9
20260507053520 41 0 0.0 0.0 0.00 0.55 0.00 93 1011.9
20260507053039 41 0 0.0 0.0 0.00 0.55 0.00 93 1011.9
20260507052523 41 0 0.0 0.0 0.00 0.55 0.00 93 1011.9
20260507052021 41 0 0.0 0.0 0.00 0.55 0.00 93 1012.0
20260507051538 41 0 0.0 0.0 0.00 0.55 0.00 93 1011.9
20260507051024 41 0 0.0 0.0 0.00 0.55 0.00 93 1012.1
20260507050519 41 0 0.0 0.0 0.00 0.55 0.00 93 1012.0
20260507050041 42 0 0.0 0.0 0.00 0.55 0.00 93 1012.2
20260507045524 42 0 0.0 0.0 0.00 0.64 0.00 93 1012.1
20260507045024 42 0 0.0 0.0 0.00 0.64 0.00 93 1012.2
20260507044538 42 0 0.0 0.9 0.00 0.64 0.00 93 1012.2
20260507044020 42 0 0.0 1.7 0.00 0.64 0.00 93 1012.4
20260507043520 42 0 0.0 1.7 0.00 0.64 0.00 93 1012.3
20260507043054 42 297 0.9 1.7 0.00 0.64 0.00 93 1012.4
20260507042521 42 0 0.0 0.0 0.00 0.64 0.00 93 1012.4
20260507042020 42 0 0.0 0.0 0.00 0.64 0.00 93 1012.4
20260507041538 42 0 0.0 0.0 0.00 0.64 0.00 93 1012.3
20260507041020 42 0 0.0 0.0 0.00 0.64 0.00 93 1012.3
20260507040520 42 0 0.0 0.0 0.00 0.64 0.00 93 1012.3
20260507040035 42 0 0.0 1.7 0.00 0.64 0.00 93 1012.2
20260507035520 42 0 0.0 1.7 0.00 0.71 0.64 93 1012.3
20260507035024 42 297 0.0 1.7 0.00 0.71 0.64 93 1012.2
20260507034538 42 0 0.0 1.7 0.00 0.71 0.64 93 1012.4
20260507034020 42 297 0.0 1.7 0.00 0.71 0.64 93 1012.1
20260507033520 42 0 0.0 1.7 0.00 0.71 0.64 93 1012.1
20260507033038 42 297 0.0 1.7 0.00 0.71 0.64 93 1012.0
20260507032523 42 297 0.9 1.7 0.00 0.71 0.64 93 1011.9
20260507032021 42 297 0.9 1.7 0.00 0.71 0.64 93 1012.1
20260507031545 42 0 0.0 1.7 0.00 0.71 0.64 93 1012.1
20260507031020 42 0 0.0 1.7 0.00 0.71 0.64 93 1012.3
20260507030526 42 0 0.0 1.7 0.00 0.71 0.64 93 1012.3
20260507030036 41 0 0.0 1.7 0.00 0.71 0.64 93 1012.3
20260507025520 41 0 0.0 1.7 0.00 0.74 0.64 93 1012.3
20260507025021 41 0 0.0 1.7 0.00 0.74 0.64 93 1012.1
20260507024537 42 0 0.0 1.7 0.00 0.74 0.64 93 1012.3
20260507024021 42 0 0.0 0.9 0.00 0.74 0.64 93 1012.3
20260507023521 42 0 0.0 1.7 0.00 0.74 0.64 93 1012.1
20260507023037 42 297 0.0 1.7 0.00 0.74 0.64 93 1012.1
20260507022520 42 0 0.0 1.7 0.00 0.74 0.64 93 1012.1
20260507022023 42 297 0.0 1.7 0.00 0.74 0.64 93 1012.0
20260507021540 42 0 0.0 1.7 0.00 0.74 0.64 93 1012.2
20260507021020 42 297 0.0 2.6 0.00 0.74 0.64 93 1012.2
20260507020521 42 0 0.9 2.6 0.00 0.74 0.64 93 1012.2
20260507020048 42 297 0.9 2.6 0.00 0.74 0.64 93 1012.3
20260507015521 42 0 0.0 2.6 0.00 0.77 0.64 93 1012.3
20260507015021 42 297 0.0 1.7 0.00 0.77 0.64 93 1012.3
20260507014538 42 297 0.0 0.0 0.00 0.77 0.64 93 1012.3
20260507014021 41 0 0.0 1.7 0.00 0.77 0.64 93 1012.4
20260507013520 41 0 0.0 1.7 0.00 0.77 0.64 92 1012.4
20260507013038 41 0 0.0 1.7 0.00 0.77 0.64 92 1012.3
20260507012520 41 0 0.0 1.7 0.00 0.77 0.64 92 1012.3
20260507012021 41 0 0.0 1.7 0.00 0.77 0.64 92 1012.1
20260507011545 42 0 0.0 1.7 0.00 0.77 0.64 92 1012.1
20260507011020 42 0 0.0 1.7 0.00 0.77 0.64 93 1012.0
20260507010520 42 297 0.0 1.7 0.00 0.77 0.64 92 1012.0
20260507010038 42 0 0.0 1.7 0.00 0.77 0.64 92 1011.9
20260507005521 42 297 0.0 1.7 0.00 0.87 0.64 92 1011.9
20260507005023 42 0 0.0 1.7 0.00 0.87 0.64 92 1012.0
20260507004535 42 0 0.0 2.6 0.00 0.87 0.64 92 1011.9
20260507004023 42 297 0.0 2.6 0.00 0.87 0.64 92 1011.9
20260507003522 42 297 0.9 2.6 0.00 0.87 0.64 93 1011.8
20260507003037 42 0 0.9 2.6 0.00 0.87 0.64 92 1011.7
20260507002522 42 0 0.0 1.7 0.00 0.87 0.64 93 1011.7
20260507002021 42 0 0.0 2.6 0.00 0.87 0.64 93 1011.5
20260507001604 41 297 0.9 3.5 0.00 0.87 0.64 92 1011.5
20260507001024 42 281 1.7 3.5 0.00 0.87 0.64 92 1011.5
20260507000521 42 0 1.7 3.5 0.00 0.87 0.64 93 1011.5
20260507000042 42 298 0.9 3.5 0.00 0.87 0.64 93 1011.5
20260506235523 42 299 0.9 3.5 0.00 0.95 0.64 93 1011.4
20260506235020 42 309 0.9 3.5 0.00 0.95 0.64 93 1011.5
20260506234537 42 0 0.9 4.3 0.00 0.95 0.64 93 1011.4
20260506234023 42 290 2.6 5.2 0.00 0.95 0.64 93 1011.5
20260506233521 42 273 1.7 5.2 0.00 0.95 0.64 93 1011.5
20260506233037 42 304 1.7 4.3 0.00 0.95 0.64 93 1011.4
20260506232520 42 300 1.7 5.2 0.00 0.95 0.64 93 1011.3
20260506232021 42 275 1.7 5.2 0.00 0.95 0.64 93 1011.3
20260506231534 42 314 1.7 5.2 0.00 0.95 0.64 93 1011.2
20260506231025 42 315 1.7 5.2 0.00 0.95 0.64 93 1011.1
20260506230526 42 300 1.7 6.1 0.00 0.95 0.64 93 1011.1
20260506230052 42 302 0.9 6.1 0.00 0.95 0.64 93 1011.0
20260506225525 42 296 2.6 6.1 0.00 1.05 0.64 92 1011.1
20260506225021 42 275 1.7 5.2 0.00 1.05 0.64 92 1010.9
20260506224538 42 315 1.7 5.2 0.00 1.05 0.64 92 1010.8
20260506224021 42 308 1.7 4.3 0.00 1.05 0.64 92 1010.6
20260506223522 42 318 2.6 7.0 0.00 1.05 0.64 92 1010.6
20260506223037 42 313 2.6 8.7 0.00 1.05 0.64 92 1010.6
20260506222525 42 323 5.2 8.7 0.00 1.05 0.64 92 1010.6
20260506222021 42 309 4.3 9.6 0.00 1.05 0.64 92 1010.3
20260506221537 42 296 4.3 9.6 0.00 1.05 0.64 91 1010.2
20260506221021 43 280 4.3 8.7 0.00 1.05 0.64 91 1010.1
20260506220520 43 304 3.5 9.6 0.00 1.05 0.64 91 1010.1
20260506220036 43 269 2.6 9.6 0.00 1.05 0.64 91 1010.1
20260506215520 44 236 4.3 10.4 0.00 1.22 0.64 90 1010.0
20260506215020 44 279 4.3 10.4 0.00 1.22 0.64 89 1009.9
20260506214537 45 313 2.6 10.4 0.00 1.22 0.64 89 1009.8
20260506214023 45 275 4.3 11.3 0.00 1.22 0.64 88 1009.7
20260506213523 46 269 5.2 11.3 0.00 1.22 0.64 88 1009.7
20260506213035 47 273 3.5 7.8 0.00 1.22 0.64 87 1009.6
20260506212521 47 301 2.6 9.6 0.00 1.22 0.64 86 1009.3
20260506212021 48 326 4.3 13.0 0.00 1.22 0.64 84 1009.2
20260506211537 49 275 4.3 13.0 0.00 1.22 0.64 83 1009.1
20260506211021 49 217 5.2 13.0 0.00 1.22 0.64 82 1008.9
20260506210524 49 220 5.2 13.0 0.00 1.22 0.64 81 1008.9
20260506210050 49 214 3.5 12.2 0.00 1.22 0.64 81 1008.7
20260506205520 49 216 3.5 12.2 0.00 1.24 0.64 81 1008.7
20260506205020 49 227 1.7 7.0 0.00 1.24 0.64 83 1008.8
20260506204540 49 226 2.6 7.0 0.00 1.24 0.64 83 1008.8
20260506204020 49 221 2.6 7.0 0.00 1.24 0.64 84 1008.8
20260506203525 49 219 1.7 7.0 0.00 1.24 0.64 84 1008.8
20260506203038 49 195 1.7 4.3 0.00 1.24 0.64 85 1008.8
20260506202525 49 205 1.7 3.5 0.00 1.24 0.64 85 1008.8
20260506202020 49 205 1.7 3.5 0.00 1.24 0.64 85 1008.8
20260506201537 49 240 1.7 3.5 0.00 1.24 0.64 85 1008.9
20260506201024 49 0 0.0 0.9 0.00 1.24 0.64 86 1008.9
20260506200520 49 0 0.0 2.6 0.00 1.24 0.64 84 1008.9
20260506200040 49 308 0.0 2.6 0.00 1.24 0.64 84 1008.9
20260506195521 49 308 0.9 1.7 0.00 1.24 0.64 84 1008.9
20260506195021 49 0 0.0 1.7 0.00 1.24 0.64 84 1008.8
20260506194538 49 0 0.0 1.7 0.00 1.24 0.64 84 1008.8
20260506194021 49 0 0.0 1.7 0.00 1.24 0.64 85 1008.9
20260506193520 49 0 0.0 1.7 0.00 1.24 0.64 85 1008.9
20260506193043 49 0 0.0 1.7 0.00 1.24 0.64 84 1008.9
20260506192520 49 307 0.0 2.6 0.00 1.24 0.64 84 1008.9
20260506192020 49 308 0.9 2.6 0.00 1.24 0.64 84 1008.9
20260506191537 49 0 0.0 0.9 0.00 1.24 0.64 85 1008.9
20260506191021 48 0 0.0 0.0 0.00 1.24 0.64 86 1008.9
20260506190521 48 0 0.0 0.0 0.00 1.24 0.64 86 1008.9
20260506190035 48 0 0.0 1.7 0.00 1.24 0.64 87 1008.8
20260506185523 48 0 0.0 1.7 0.00 1.24 0.64 88 1008.8
20260506185020 48 0 0.0 2.6 0.00 1.24 0.64 89 1008.8
20260506184543 48 0 0.9 2.6 0.00 1.24 0.64 89 1008.8
20260506184020 47 86 0.9 2.6 0.00 1.24 0.64 90 1008.8
20260506183523 47 86 1.7 2.6 0.00 1.24 0.64 90 1008.8
20260506183038 47 86 0.0 2.6 0.00 1.24 0.64 90 1009.0
20260506182520 47 86 1.7 2.6 0.00 1.24 0.64 91 1009.0
20260506182020 47 86 0.9 1.7 0.00 1.24 0.64 90 1009.0
20260506181542 47 86 0.0 0.9 0.00 1.24 0.64 90 1009.1
20260506181025 47 0 0.0 0.9 0.00 1.24 0.64 91 1009.1
20260506180525 47 0 0.0 0.0 0.00 1.24 0.64 91 1009.1
20260506180038 47 0 0.0 0.0 0.00 1.24 0.64 91 1009.0
20260506175520 46 0 0.0 0.0 0.00 1.24 0.64 91 1009.0
20260506175020 46 0 0.0 0.0 0.00 1.24 0.64 91 1008.9
20260506174538 46 0 0.0 0.0 0.00 1.24 0.64 91 1008.9
20260506174022 46 0 0.0 0.0 0.00 1.24 0.64 92 1009.0
20260506173520 46 0 0.0 0.0 0.00 1.24 0.64 92 1008.9
20260506173043 46 0 0.0 0.0 0.00 1.24 0.64 92 1009.0
20260506172523 46 0 0.0 1.7 0.00 1.24 0.64 92 1009.1
20260506172021 46 0 0.0 1.7 0.00 1.24 0.64 92 1009.1
20260506171538 45 86 0.0 1.7 0.00 1.24 0.64 91 1009.1
20260506171023 45 86 1.7 1.7 0.00 1.24 0.64 91 1009.1
20260506170520 45 86 0.9 1.7 0.00 1.24 0.64 91 1009.1
20260506170046 45 86 0.9 1.7 0.00 1.24 0.64 91 1008.9
20260506165524 46 86 0.9 1.7 0.00 1.24 0.64 91 1008.9
20260506165021 46 86 0.9 1.7 0.00 1.24 0.64 90 1008.9
20260506164551 46 86 0.9 1.7 0.00 1.24 0.64 90 1008.9
20260506164020 46 0 0.0 0.0 0.00 1.24 0.64 89 1008.8
20260506163520 46 0 0.0 1.7 0.00 1.24 0.64 89 1008.7
20260506163041 46 0 0.0 1.7 0.00 1.24 0.64 89 1008.8
20260506162520 46 0 0.0 0.0 0.00 1.24 0.64 89 1008.7
20260506162020 46 0 0.0 1.7 0.00 1.24 0.64 89 1008.8
20260506161537 46 0 0.0 1.7 0.00 1.24 0.64 89 1008.7
20260506161023 46 86 0.9 2.6 0.00 1.24 0.64 90 1008.7
20260506160520 45 86 0.9 2.6 0.00 1.24 0.64 89 1008.6
20260506160050 46 86 0.9 2.6 0.00 1.24 0.64 90 1008.6
20260506155523 46 86 1.7 2.6 0.00 1.24 0.64 90 1008.7
20260506155024 46 86 0.0 2.6 0.00 1.24 0.64 91 1008.7
20260506154544 46 86 0.9 2.6 0.00 1.24 0.64 90 1008.6
20260506154023 46 86 1.7 3.5 0.00 1.24 0.64 91 1008.7
20260506153519 46 86 1.7 3.5 0.00 1.24 0.64 91 1008.6
20260506153037 45 93 1.7 3.5 0.00 1.24 0.64 92 1008.6
20260506152523 45 93 1.7 3.5 0.01 1.24 0.64 92 1008.4
20260506152021 45 93 0.9 3.5 0.01 1.24 0.64 93 1008.4
20260506151539 45 93 1.7 2.6 0.01 1.24 0.64 93 1008.5
20260506151020 45 93 1.7 3.5 0.01 1.24 0.64 92 1008.6
20260506150521 45 93 1.7 4.3 0.01 1.24 0.64 93 1008.7
20260506150043 45 93 2.6 4.3 0.01 1.24 0.64 93 1008.4
20260506145521 45 86 1.7 2.6 0.01 1.24 0.64 93 1008.3
20260506145021 45 86 0.9 2.6 0.01 1.24 0.64 93 1008.3
20260506144537 45 86 0.9 2.6 0.01 1.24 0.64 93 1008.2
20260506144025 44 86 1.7 2.6 0.01 1.24 0.64 93 1008.3
20260506143526 44 86 0.9 2.6 0.01 1.24 0.64 93 1008.3
20260506143039 44 86 0.9 2.6 0.01 1.24 0.64 93 1008.3
20260506142522 44 86 0.9 3.5 0.00 1.23 0.63 93 1008.3
20260506142021 44 86 0.9 3.5 0.00 1.23 0.63 93 1008.3
20260506141543 44 86 1.7 3.5 0.00 1.23 0.63 93 1008.2
20260506141023 44 69 1.7 3.5 0.00 1.23 0.63 93 1008.1
20260506140523 44 60 1.7 5.2 0.00 1.23 0.63 93 1008.1
20260506140038 44 86 0.9 5.2 0.00 1.23 0.63 93 1008.1
20260506135520 44 111 2.6 5.2 0.00 1.23 0.63 94 1008.0
20260506135021 44 111 1.7 5.2 0.01 1.23 0.63 94 1008.1